Flag for Germany Weather past 2 weeks in Varel, Lower Saxony, Germany

Now
57 °F

Partly sunny.


Feels Like: 55 °F
Forecast: 48 / 62 °F
Wind: 12 mph from North

Location: Wittmundhaven

Current Time: Sep 22, 2014 at 8:43:27 PM

Latest Report: Sep 22, 2014 at 7:20 PM


Visibility: N/A

Pressure: 30.09 "Hg

Humidity: 59%

Dew point: 43 °F

Location of VarelLocation

Historic Weather in Varel — Graph

°F

Varel temperature yesterday

Maximum temperature yesterday: 63 °F (at 1:20 AM)
Minimum temperature yesterday: 55 °F (at 7:20 PM)
Average temperature yesterday: 60 °F

Past Weeks' High & Low Weather Summary

 TemperatureHumidityPressure
High75 °F (Sep 17, 3:20 PM)100% (Sep 12, 4:20 AM)30.30 "Hg (Sep 12, 4:20 AM)
Low48 °F (Sep 12, 4:20 AM)51% (Sep 22, 2:20 PM)29.86 "Hg (Sep 18, 3:20 PM)
Average61 °F82%30.06 "Hg
* Reported Sep 7 7:20 PM — Sep 22 7:20 PM, Varel, Weather by CustomWeather, © 2014

Note: Actual official high and low records may vary slightly from our data, if they occured in-between our weather recording intervals... More about our weather records

Advertising

Varel weather history for previous 24 hours

 ConditionsComfort  
Time TempWeatherWind HumidityBarometerVisibility
7:20 PM
Sep 22
57 °FPartly sunny.12 mph59%30.09 "HgN/A
6:20 PM57 °FScattered clouds.13 mph59%30.07 "HgN/A
5:20 PM57 °FScattered clouds.15 mph55%30.07 "HgN/A
4:20 PM59 °FScattered clouds.17 mph51%30.07 "HgN/A
3:20 PM59 °FScattered clouds.16 mph51%30.04 "HgN/A
2:20 PM59 °FPassing clouds.20 mph51%30.04 "HgN/A
1:20 PM61 °FPassing clouds.17 mph55%30.01 "HgN/A
12:20 PM57 °FSprinkles. Scattered clouds.17 mph63%30.01 "HgN/A
11:20 AM54 °FScattered clouds.9 mph67%30.01 "HgN/A
10:20 AM52 °FPartly sunny.6 mph88%29.98 "HgN/A
9:20 AM52 °FSprinkles. Partly sunny.14 mph88%29.98 "HgN/A
8:20 AM52 °FSprinkles. Broken clouds.18 mph88%29.95 "HgN/A
7:20 AM55 °FPassing clouds.20 mph67%29.95 "HgN/A
6:20 AM55 °FPassing clouds.16 mph59%29.95 "HgN/A
5:20 AM57 °FPartly cloudy.16 mph55%29.98 "HgN/A
4:20 AM57 °FPassing clouds.20 mph63%29.98 "HgN/A
3:20 AM57 °FPassing clouds.17 mph63%29.98 "HgN/A
2:20 AM57 °FPassing clouds.16 mph72%30.01 "HgN/A
1:20 AM57 °FPassing clouds.15 mph59%30.01 "HgN/A
12:20 AM57 °FPassing clouds.16 mph63%30.01 "HgN/A
11:20 PM
Sep 21
57 °FPassing clouds.15 mph72%30.01 "HgN/A
10:20 PM57 °FPassing clouds.15 mph72%30.01 "HgN/A
9:20 PM59 °FPassing clouds.14 mph72%30.01 "HgN/A
8:20 PM57 °FScattered clouds.15 mph82%29.98 "HgN/A
Weather by CustomWeather, © 2014

See weather overviewHow to use our weather pages